Weather in Guadalajara

Spain     40°37′48″N   3°09′52″W
temp.,
°C
wind,
m/s
gust,
m/s
humid.,
%
clouds,
%
prec.,
mm/h
press.,
hPa
HPBL,
m
7 march, sun
sun701:00+8s018255 0.3 102193
04:00+6nnw018974 0.1 102022
07:00+7ne118479 0.1 102027
10:00+9ne017097 0.0 1020335
13:00+12ssw215798 0.1 10181049
16:00+13sw2251100 0.0 10151279
19:00+9ssw237179 0.4 101459
22:00+7s228669 0.8 101674
8 march, mon
mon801:00+6se019082 1.4 101631
04:00+7ene119093 0.5 101568
07:00+7ne119196 1.6 101575
10:00+7ene468081 0.6 1016398
13:00+11ene335982 0.6 1015968
16:00+12ne445456 1.1 10131200
19:00+9ne587078 2.9 1014283
22:00+6ne7117772 0.3 1018390
9 march, tue
tue901:00+5ne6107578 0.3 1019418
04:00+4ne597498 0.0 1019334
07:00+3ne487498 0.0 1020261
10:00+6ne686762 0.0 1021444
13:00+10ene335343 0.0 1020998
16:00+11nne224826 0.0 10181516
19:00+8nw226646 0.0 101832
22:00+6n23710 0.0 102232
10 march, wed
wed1001:00+4n237324 0.0 102332
04:00+3nne237475 0.0 102327
07:00+2nne236959 0.0 102428
10:00+7ne11550 0.0 1025255
13:00+12sw11380 0.0 1024793
16:00+13sw32355 0.0 1022926
19:00+10sw22443 0.0 102222
22:00+8ssw114767 0.0 102522
11 march, thu
thu1101:00+6nw015853 0.0 102622
04:00+6ese116583 0.0 102622
07:00+5se117588 0.0 102622
10:00+8s126788 0.0 1026257
13:00+12sw345594 0.0 1025598
16:00+15sw454987 0.0 1022758
19:00+12ssw366581 0.0 102394
22:00+9sw017593 0.0 102422